This data was downloaded from National Climate Data Center archives at www.ncdc.noaa.gov. View the readme file at ftp://ftp1.esrl.noaa.gov/psd3/arctic/station_nord/temperature/0_DOCS/readme.txt for information and details on column headers.,,,,,,,,,,,,,,,,,,,,,
STN---,WBAN , YEARMODA,   TEMP,  ,   DEWP,  ,  SLP  ,  ,  STP  ,  , VISIB,  ,  WDSP,  , MXSPD,  GUST,   MAX  ,  MIN  ,PRCP  ,SNDP , FRSHTT
43100,99999,19520511,9.8,6,3.2,6,1033.8,6,9999.9,0,43.5,6,2.5,6,8,999.9,   14.0*,   5.0*, 0.00G,999.9,0
43100,99999,19520512,10.2,8,4.3,8,1029.7,8,9999.9,0,43.5,8,0.4,8,2.9,999.9,   14.0*,   7.0*, 0.00G,999.9,0
43100,99999,19520513,9.7,8,5,8,1031,8,9999.9,0,38.1,8,1.7,8,5.1,999.9,   14.0*,   5.0*, 0.00G,999.9,1000
43100,99999,19520514,11.3,8,6.6,8,1029,8,9999.9,0,41.2,8,1.9,8,6,999.9,   14.0*,   7.0*, 0.00G,999.9,0
43100,99999,19520515,15.5,8,10.3,8,1024.8,8,9999.9,0,43.5,8,2.7,8,8.9,999.9,   25.0*,   7.0*, 0.00G,999.9,0
43100,99999,19520516,21.5,8,17.4,8,1022.5,8,9999.9,0,42.7,8,4.4,8,8,999.9,   25.0*,  18.0*, 0.00G,999.9,100000
43100,99999,19520517,23.7,8,19.5,8,1018.3,8,9999.9,0,23.1,8,19.3,8,22.9,999.9,   25.0*,  21.0*, 0.00G,999.9,100000
43100,99999,19520518,26.8,8,20.7,8,1006.3,8,9999.9,0,41.9,8,9,8,18.1,999.9,   30.0*,  23.0*, 0.00G,999.9,0
43100,99999,19520519,26.8,8,20,8,996.9,8,9999.9,0,43.5,8,3,8,8,999.9,   34.0*,  23.0*, 0.00G,999.9,0
43100,99999,19520520,26.1,8,23.5,8,1000,8,9999.9,0,7.8,8,6.2,8,9.9,999.9,   28.0*,  23.0*,99.99,999.9,1000
43100,99999,19520521,29.5,8,24.4,8,1002.5,7,9999.9,0,35,8,5.6,8,9.9,999.9,   34.0*,  27.0*, 0.00G,999.9,0
43100,99999,19520522,25.5,8,21.3,8,1004.7,7,9999.9,0,29.5,8,5.3,8,9.9,999.9,   27.0*,  23.0*, 0.00G,999.9,1000
43100,99999,19520523,22.8,8,19.5,8,1010.4,8,9999.9,0,6.8,8,9.1,8,12,999.9,   25.0*,  21.0*, 0.00G,999.9,1000
43100,99999,19520524,25.5,8,22.3,8,1012.2,8,9999.9,0,7.2,8,9.3,8,12,999.9,   27.0*,  23.0*, 0.00G,999.9,1000
43100,99999,19520525,25,8,22,8,1011.5,8,9999.9,0,2.9,8,9.6,8,14,999.9,   27.0*,  23.0*,99.99,999.9,1000
43100,99999,19520526,24.5,8,22.5,8,1018.1,8,9999.9,0,1.8,8,15.5,8,26,999.9,   27.0*,  21.0*,99.99,999.9,1000
43100,99999,19520527,23.8,7,21.3,7,1025.2,7,9999.9,0,3.7,7,16,7,28,999.9,   27.0*,  21.0*,99.99,999.9,1000
43100,99999,19520528,23.2,8,20.6,8,1025.2,8,9999.9,0,11.2,8,7,8,12,999.9,   27.0*,  19.0*, 0.00G,999.9,0
43100,99999,19520529,21.5,8,16.5,8,1023,8,9999.9,0,38.1,8,2.2,8,8,999.9,   27.0*,  19.0*, 0.00G,999.9,0
43100,99999,19520530,26,8,22.5,8,1022.9,8,9999.9,0,32.3,8,3.1,8,6,999.9,   30.0*,  19.0*, 0.00G,999.9,1000
43100,99999,19520531,24.5,8,18.7,8,1024,8,9999.9,0,40.4,8,1,8,6,999.9,   27.0*,  23.0*, 0.00G,999.9,0
43100,99999,19520601,19.6,8,17.9,8,1021.4,8,9999.9,0,18.6,8,5.5,8,12,999.9,   23.0*,  14.0*, 0.00G,999.9,101000
43100,99999,19520602,20.5,7,18.4,7,1026.8,7,9999.9,0,5.1,7,12.1,7,19,999.9,   21.0*,  19.0*,99.99,999.9,1000
43100,99999,19520603,24,8,20.8,8,1027.5,8,9999.9,0,31.8,8,1.9,8,4.1,999.9,   27.0*,  21.0*, 0.00G,999.9,1000
43100,99999,19520604,31.4,8,23.1,8,1020.8,8,9999.9,0,43.5,8,4.4,8,8,999.9,   37.0*,  25.0*, 0.00G,999.9,0
43100,99999,19520605,31.5,8,27.7,8,1017,8,9999.9,0,38.7,8,16,8,23.9,999.9,   32.0*,  30.0*, 0.00G,999.9,0
43100,99999,19520606,34.2,8,28.1,8,1009.1,8,9999.9,0,43.5,8,17,8,23.9,999.9,   36.0*,  30.0*, 0.00G,999.9,0
43100,99999,19520607,33.5,8,26.5,8,1004.3,8,9999.9,0,43.5,8,15,8,18.1,999.9,   36.0*,  32.0*, 0.00G,999.9,0
43100,99999,19520608,34,8,27.6,8,1004.2,8,9999.9,0,37.3,8,1.6,8,8,999.9,   36.0*,  30.0*, 0.00G,999.9,0
43100,99999,19520609,32.2,8,28.5,8,1011.7,8,9999.9,0,26.3,8,1.1,8,4.1,999.9,   34.0*,  30.0*, 0.00G,999.9,1000
43100,99999,19520610,28.5,8,27.1,8,1012.3,8,9999.9,0,6.5,8,8.5,8,13,999.9,   30.0*,  27.0*, 0.00G,999.9,1000
43100,99999,19520611,29.8,8,27.4,8,1014.7,8,9999.9,0,28,8,4.6,8,9.9,999.9,   32.0*,  28.0*, 0.00G,999.9,1000
43100,99999,19520612,31.5,8,25.9,8,1021.6,8,9999.9,0,42.7,8,5.2,8,9.9,999.9,   34.0*,  27.0*, 0.00G,999.9,0
43100,99999,19520613,34.9,8,30.9,8,1026.1,8,9999.9,0,34.3,8,0.8,8,6,999.9,   37.0*,  34.0*, 0.00G,999.9,0
43100,99999,19520614,38.3,8,29.9,8,1023.2,8,9999.9,0,43.5,8,2.3,8,6,999.9,   41.0*,  34.0*, 0.00G,999.9,0
43100,99999,19520615,34.5,8,29.8,8,1015.9,8,9999.9,0,32.8,8,1.5,8,4.1,999.9,   41.0*,  28.0*, 0.00G,999.9,100000
43100,99999,19520616,28.2,8,24.2,8,1019,8,9999.9,0,9.9,8,1,8,8,999.9,   30.0*,  25.0*, 0.00G,999.9,1000
43100,99999,19520617,26.6,8,24.5,8,1018.9,8,9999.9,0,7.4,8,1.9,8,4.1,999.9,   28.0*,  25.0*, 0.00G,999.9,101000
43100,99999,19520618,26.7,8,23.2,8,1018.1,8,9999.9,0,10.3,8,0.2,8,1.9,999.9,   28.0*,  25.0*, 0.00G,999.9,101000
43100,99999,19520619,27.5,8,26.5,8,1017,8,9999.9,0,9.1,8,5.2,8,8,999.9,   28.0*,  25.0*, 0.00G,999.9,100000
43100,99999,19520620,28,8,26.2,8,1017.2,8,9999.9,0,26.4,8,2.5,8,6,999.9,   30.0*,  27.0*, 0.00G,999.9,100000
43100,99999,19520621,27.6,8,26.7,8,1017.6,8,9999.9,0,6.5,8,2.3,8,6,999.9,   28.0*,  27.0*, 0.00G,999.9,100000
43100,99999,19520622,30.4,8,27.5,8,1015.5,8,9999.9,0,22,8,1.6,8,5.1,999.9,   34.0*,  27.0*, 0.00G,999.9,100000
43100,99999,19520623,32.7,8,30.1,8,1010.8,8,9999.9,0,27.7,8,3.2,8,12,999.9,   36.0*,  28.0*, 0.00G,999.9,100000
43100,99999,19520624,31,8,28.5,8,1009.1,8,9999.9,0,17.1,8,7.7,8,12,999.9,   32.0*,  30.0*, 0.00G,999.9,0
43100,99999,19520625,35.6,8,30.3,8,1008.6,8,9999.9,0,42.7,8,8.8,8,23.9,999.9,   37.0*,  32.0*, 0.00G,999.9,100000
43100,99999,19520626,33.5,8,30,8,1009.9,8,9999.9,0,21.9,8,3.5,8,12,999.9,   36.0*,  32.0*, 0.00G,999.9,100000
43100,99999,19520627,32,8,31.3,8,1008,8,9999.9,0,1.3,8,3.1,8,6,999.9,9999.9,9999.9,99.99,999.9,11000
43100,99999,19520628,33,8,32.5,8,1010.4,8,9999.9,0,0.4,8,0.4,8,2.9,999.9,   34.0*,  32.0*,99.99,999.9,110000
43100,99999,19520629,33,8,32,8,1011,8,9999.9,0,0.7,8,0.8,8,6,999.9,   36.0*,  30.0*, 0.00G,999.9,100000
43100,99999,19520630,31.8,8,29,8,1010.9,8,9999.9,0,11.3,8,2.1,8,8,999.9,   34.0*,  30.0*, 0.00G,999.9,100000
43100,99999,19520701,32.5,8,30.8,8,1011.8,8,9999.9,0,27,8,1.1,8,4.1,999.9,   34.0*,  32.0*, 0.00G,999.9,0
43100,99999,19520702,33,8,30.8,8,1006.9,8,9999.9,0,15.7,8,1.2,8,7,999.9,   34.0*,  32.0*, 0.00G,999.9,11000
43100,99999,19520703,30.5,8,28.9,7,1004.8,8,9999.9,0,5.3,8,8,8,9.9,999.9,   32.0*,  28.0*, 0.00G,999.9,111000
43100,99999,19520704,33.9,8,29.4,8,1006.8,8,9999.9,0,38.8,8,3.5,8,8,999.9,   37.0*,  32.0*, 0.00G,999.9,0
43100,99999,19520705,36.4,8,32,8,1007.4,8,9999.9,0,43.5,8,2.1,8,8,999.9,   39.0*,  32.0*, 0.00G,999.9,0
43100,99999,19520706,36.7,8,29.4,8,1009.2,8,9999.9,0,39.6,8,1,8,8,999.9,   41.0*,  30.0*, 0.00G,999.9,100000
43100,99999,19520707,31.8,8,31,8,1011.7,8,9999.9,0,3.5,8,3,8,8,999.9,   34.0*,  28.0*, 0.00G,999.9,100000
43100,99999,19520708,34,8,29.4,8,1012.9,8,9999.9,0,32.5,8,1.1,8,2.9,999.9,   39.0*,  30.0*, 0.00G,999.9,110000
43100,99999,19520709,37.6,8,31,8,1006.2,8,9999.9,0,43.5,8,8.7,8,9.9,999.9,   39.0*,  36.0*, 0.00G,999.9,0
43100,99999,19520710,34.7,8,30.3,8,1013.1,8,9999.9,0,42.7,8,3.2,8,8,999.9,   37.0*,  32.0*, 0.00G,999.9,0
43100,99999,19520711,36.6,8,31.5,8,1014.6,8,9999.9,0,43.5,8,2.3,8,8,999.9,   39.0*,  36.0*, 0.00G,999.9,0
43100,99999,19520712,39.4,8,33.7,8,1015.5,8,9999.9,0,43.5,8,5.1,8,9.9,999.9,   50.0*,  34.0*, 0.00G,999.9,10000
43100,99999,19520713,37.5,8,34.7,8,1014.8,8,9999.9,0,43.5,8,3.2,8,9.9,999.9,   41.0*,  36.0*, 0.00G,999.9,0
43100,99999,19520714,37.5,8,32.2,8,1011.1,8,9999.9,0,43.5,8,5.5,8,12,999.9,   39.0*,  37.0*, 0.00G,999.9,0
43100,99999,19520715,39,8,35.6,8,1009.9,8,9999.9,0,43.5,8,6.1,8,9.9,999.9,   43.0*,  37.0*, 0.00G,999.9,0
43100,99999,19520716,39.6,8,35,8,1002.7,8,9999.9,0,43.5,8,5.9,8,12,999.9,   45.0*,  36.0*, 0.00G,999.9,0
43100,99999,19520717,45.3,8,36.3,8,1004.8,8,9999.9,0,43.5,8,6,8,9.9,999.9,   55.0*,  36.0*, 0.00G,999.9,0
43100,99999,19520718,43.9,8,35.4,8,1003.9,8,9999.9,0,43.5,8,9.3,8,15,999.9,   54.0*,  34.0*, 0.00G,999.9,0
43100,99999,19520719,40.3,8,33.9,8,986.5,8,9999.9,0,43.5,8,11.4,8,18.1,999.9,   45.0*,  34.0*, 0.00G,999.9,0
43100,99999,19520720,41.1,8,33.2,8,992.6,8,9999.9,0,43.5,8,17,8,29.9,999.9,   50.0*,  34.0*, 0.00G,999.9,0
43100,99999,19520721,47.2,8,29.6,8,996.3,8,9999.9,0,43.5,8,16.8,8,23.9,999.9,   52.0*,  43.0*, 0.00G,999.9,0
43100,99999,19520722,37,8,30.5,8,997.1,8,9999.9,0,33.9,8,6.5,8,9.9,999.9,   45.0*,  30.0*, 0.00G,999.9,100000
43100,99999,19520723,48.5,8,31.3,8,998.5,8,9999.9,0,43.5,8,12.9,8,22,999.9,   55.0*,  37.0*, 0.00G,999.9,0
43100,99999,19520724,48.5,8,31.5,8,998.5,7,9999.9,0,43.5,8,17.7,8,23.9,999.9,   52.0*,  45.0*, 0.00G,999.9,10000
43100,99999,19520725,39.7,8,35.5,8,1005.4,7,9999.9,0,22.7,8,7.3,8,14,999.9,   46.0*,  34.0*, 0.00G,999.9,10000
43100,99999,19520726,44.9,8,36.5,8,1005.8,8,9999.9,0,36.9,8,4.8,8,12,999.9,   54.0*,  36.0*, 0.00G,999.9,100000
43100,99999,19520727,45.3,8,34.4,8,1003.6,8,9999.9,0,34,8,7.8,8,14,999.9,   52.0*,  30.0*, 0.00G,999.9,100000
43100,99999,19520728,34.4,8,29.9,8,1005.2,8,9999.9,0,29.3,8,2.5,8,8,999.9,   45.0*,  28.0*, 0.00G,999.9,100000
43100,99999,19520729,41.1,8,32.9,8,1013.1,8,9999.9,0,35.3,8,5.5,8,9.9,999.9,   48.0*,  36.0*, 0.00G,999.9,100000
43100,99999,19520730,51.6,8,36.5,8,1017.2,8,9999.9,0,43.5,8,12.2,8,15.9,999.9,   57.0*,  45.0*, 0.00G,999.9,0
43100,99999,19520731,46.8,8,33.9,8,1015.9,8,9999.9,0,43.5,8,8,8,9.9,999.9,   52.0*,  39.0*, 0.00G,999.9,0
43100,99999,19520801,34.1,8,31.5,8,1017.6,8,9999.9,0,32.9,8,6.9,8,8,999.9,   37.0*,  32.0*, 0.00G,999.9,100000
43100,99999,19520802,38.6,8,32,8,1018.6,8,9999.9,0,43.5,8,5.9,8,9.9,999.9,   45.0*,  30.0*, 0.00G,999.9,100000
43100,99999,19520803,35.9,8,33.5,8,1013.9,8,9999.9,0,32.9,8,3.3,8,6,999.9,   41.0*,  32.0*, 0.00G,999.9,10000
43100,99999,19520804,32,8,31.3,8,1018.1,8,9999.9,0,1.1,8,3.6,8,6,999.9,   34.0*,  30.0*,99.99,999.9,111000
43100,99999,19520805,45.5,8,37.1,8,1013.3,8,9999.9,0,41.2,8,2.4,8,6,999.9,   52.0*,  36.0*, 0.00G,999.9,100000
43100,99999,19520806,44.4,8,37.6,8,1011.7,8,9999.9,0,43.5,8,4.4,8,8,999.9,   46.0*,  41.0*, 0.00G,999.9,0
43100,99999,19520807,49.1,8,39.1,8,1009.1,8,9999.9,0,43.5,8,8.3,8,12,999.9,   55.0*,  37.0*, 0.00G,999.9,0
43100,99999,19520808,39.7,8,38.4,8,1010,8,9999.9,0,23,8,3.1,8,8,999.9,   45.0*,  36.0*, 0.00G,999.9,110000
43100,99999,19520809,48.4,8,40,8,1005.3,8,9999.9,0,39.3,8,10.6,8,15.9,999.9,   54.0*,  43.0*, 0.00G,999.9,10000
43100,99999,19520810,37.2,8,35.4,8,1007.2,8,9999.9,0,4.4,8,7.7,8,14,999.9,   45.0*,  32.0*, 0.00G,999.9,111000
43100,99999,19520811,33,8,30,8,1013,8,9999.9,0,12.9,8,3.9,8,6,999.9,   34.0*,  32.0*,99.99,999.9,11000
43100,99999,19520812,38.9,8,32.7,8,1009.2,8,9999.9,0,41.2,8,8.4,8,18.1,999.9,   46.0*,  34.0*, 0.00G,999.9,0
43100,99999,19520813,35.6,8,33.8,8,1004.9,8,9999.9,0,12.6,8,3.5,8,9.9,999.9,   41.0*,  32.0*,99.99,999.9,10000
43100,99999,19520814,31,8,29.8,8,1004.3,8,9999.9,0,3.7,8,4.8,8,8,999.9,   32.0*,  30.0*, 0.00G,999.9,11000
43100,99999,19520815,31.3,8,30,8,1003.4,8,9999.9,0,2.5,8,21.6,8,29.9,999.9,   32.0*,  30.0*, 0.00G,999.9,1000
43100,99999,19520816,30,8,29.3,8,1006.3,8,9999.9,0,10.9,8,19.7,8,29.9,999.9,9999.9,9999.9, 0.00G,999.9,101000
43100,99999,19520817,29.5,8,28.5,8,1008.7,8,9999.9,0,3.4,8,7.2,8,15.9,999.9,   32.0*,  28.0*,99.99,999.9,11000
43100,99999,19520818,29.4,8,28.8,8,1009.8,8,9999.9,0,4.5,8,2,8,6,999.9,   30.0*,  27.0*, 0.00G,999.9,101000
43100,99999,19520819,27.1,8,25.9,8,1012,8,9999.9,0,33,8,0,8,999.9,999.9,   32.0*,  23.0*, 0.00G,999.9,100000
43100,99999,19520820,33.9,8,28.1,8,1010.5,8,9999.9,0,43.5,8,4.2,8,9.9,999.9,   39.0*,  27.0*, 0.00G,999.9,100000
43100,99999,19520821,22.5,8,21.5,8,1011,8,9999.9,0,5,8,4.4,8,8,999.9,   25.0*,  19.0*, 0.00G,999.9,100000
43100,99999,19520822,24.4,8,22,8,1006.5,8,9999.9,0,26.1,8,4,8,12,999.9,   28.0*,  21.0*, 0.00G,999.9,100000
43100,99999,19520823,28,8,24.9,8,1010.4,8,9999.9,0,18.3,8,5.2,8,9.9,999.9,   32.0*,  23.0*, 0.00G,999.9,1000
43100,99999,19520824,33.2,8,28.6,8,1007,8,9999.9,0,38.1,8,8,8,12,999.9,   34.0*,  30.0*, 0.00G,999.9,100000
43100,99999,19520825,32,8,21.8,8,997.5,8,9999.9,0,36.5,8,12.5,8,15.9,999.9,   36.0*,  28.0*, 0.00G,999.9,0
43100,99999,19520826,31.8,8,20.8,8,997.2,8,9999.9,0,38.1,8,10.7,8,12,999.9,   34.0*,  30.0*, 0.00G,999.9,0
43100,99999,19520827,28.4,8,21.8,8,999.8,8,9999.9,0,30.3,8,2.7,8,8,999.9,   34.0*,  21.0*, 0.00G,999.9,100000
43100,99999,19520828,23.7,8,22,8,1000.5,8,9999.9,0,4.9,8,2.8,8,8,999.9,   27.0*,  19.0*, 0.00G,999.9,101000
43100,99999,19520829,27.6,8,24.3,8,998.4,8,9999.9,0,19.3,8,5.9,8,9.9,999.9,   28.0*,  27.0*, 0.00G,999.9,101000
43100,99999,19520830,27.6,8,20.3,8,1000.9,8,9999.9,0,38.5,8,7.1,8,9.9,999.9,   30.0*,  27.0*, 0.00G,999.9,1000
43100,99999,19520831,27.8,8,18.6,8,1003.8,8,9999.9,0,43.5,8,9.9,8,21,999.9,   28.0*,  27.0*, 0.00G,999.9,0
43100,99999,19520901,30.4,8,20.8,8,1001.2,8,9999.9,0,30.1,8,23.7,8,29.9,999.9,   34.0*,  27.0*, 0.00G,999.9,0
43100,99999,19520902,32.9,8,26.1,8,1006.9,8,9999.9,0,43.5,8,15,8,26,999.9,   36.0*,  27.0*, 0.00G,999.9,0
43100,99999,19520903,27.4,8,22,8,1014.5,8,9999.9,0,43.5,8,7.2,8,9.9,999.9,   30.0*,  23.0*, 0.00G,999.9,0
43100,99999,19520904,27,8,20.3,8,1010.8,8,9999.9,0,43.5,8,11.4,8,15,999.9,   28.0*,  25.0*, 0.00G,999.9,0
43100,99999,19520905,24.6,8,15.5,8,1008.6,8,9999.9,0,43.5,8,6,8,9.9,999.9,   28.0*,  19.0*, 0.00G,999.9,0
43100,99999,19520906,24,8,17.1,8,1003.8,8,9999.9,0,20.7,8,13.1,8,23.9,999.9,   32.0*,  18.0*, 0.00G,999.9,11000
43100,99999,19520907,20.1,8,17.6,8,1012.8,8,9999.9,0,29.4,8,6.6,8,14,999.9,   27.0*,  18.0*, 0.00G,999.9,0
43100,99999,19520908,21.5,8,18.6,8,1007.1,8,9999.9,0,10,8,7.4,8,12,999.9,   27.0*,  14.0*,99.99,999.9,1000
43100,99999,19520909,15.6,8,10.5,8,1009.3,8,9999.9,0,43.5,8,6.6,8,9.9,999.9,   21.0*,   9.0*, 0.00G,999.9,0
43100,99999,19520910,24.5,8,18.7,8,1003.6,8,9999.9,0,22.9,8,18.1,8,25.1,999.9,   27.0*,  21.0*, 0.00G,999.9,1000
43100,99999,19520911,22.5,8,21.3,8,1001.4,8,9999.9,0,9.1,8,9.5,8,14,999.9,   25.0*,  21.0*, 0.00G,999.9,1000
43100,99999,19520912,25.7,8,23.9,8,1008.3,8,9999.9,0,18.4,8,9.4,8,16.9,999.9,   27.0*,  21.0*, 0.00G,999.9,1000
43100,99999,19520913,19.9,8,14.5,8,1012,8,9999.9,0,43.5,8,8.5,8,12,999.9,   23.0*,  16.0*, 0.00G,999.9,0
43100,99999,19520914,13.9,8,9.7,8,1017.3,8,9999.9,0,43.5,8,7.9,8,14,999.9,   21.0*,  10.0*, 0.00G,999.9,0
43100,99999,19520915,19.6,8,13,8,1017.7,8,9999.9,0,15.3,8,18.6,8,27,999.9,   23.0*,  16.0*, 0.00G,999.9,1000
43100,99999,19520916,19.3,8,13.6,8,1013.5,8,9999.9,0,38.8,8,10.2,8,22,999.9,   23.0*,  16.0*, 0.00G,999.9,0
43100,99999,19520917,14.7,8,6.8,8,1015.1,8,9999.9,0,40.4,8,5.9,8,11.1,999.9,   16.0*,  14.0*, 0.00G,999.9,0
43100,99999,19520918,18.1,8,15.7,8,1021.8,8,9999.9,0,13,8,3.2,8,5.1,999.9,   19.0*,  16.0*, 0.00G,999.9,1000
43100,99999,19520919,18.4,8,17.5,8,1018,8,9999.9,0,1.3,8,8.6,8,12,999.9,   19.0*,  18.0*,99.99,999.9,11000
43100,99999,19520920,16.6,8,15.7,8,1013,8,9999.9,0,0.6,8,22.6,8,29.9,999.9,   19.0*,  12.0*,99.99,999.9,1000
43100,99999,19520921,16.2,8,15,8,1009.3,8,9999.9,0,0.4,8,12.7,8,23.9,999.9,   18.0*,  14.0*,99.99,999.9,1000
43100,99999,19520922,14.5,8,12.8,8,1008,8,9999.9,0,4.2,8,6.6,8,14,999.9,   16.0*,  14.0*,99.99,999.9,11000
43100,99999,19520923,14.7,8,10.6,8,1005.2,8,9999.9,0,37.4,8,9.2,8,14,999.9,   16.0*,  10.0*, 0.00G,999.9,1000
43100,99999,19520924,7.8,8,5.5,8,1014.4,8,9999.9,0,30.4,8,3.3,8,13,999.9,   10.0*,   3.0*, 0.00G,999.9,101000
43100,99999,19520925,5.1,8,3.6,8,1015.9,8,9999.9,0,3.3,8,5.4,8,8.9,999.9,   12.0*,  -2.0*, 0.00G,999.9,101000
43100,99999,19520926,8.8,8,6.7,8,1019,8,9999.9,0,26.1,8,0.4,8,2.9,999.9,   10.0*,   7.0*, 0.00G,999.9,101000
43100,99999,19520927,11,8,9.3,8,1022.1,8,9999.9,0,27.7,8,3.2,8,6,999.9,   18.0*,   5.0*, 0.00G,999.9,100000
43100,99999,19520928,9.3,8,6.7,8,1018.4,8,9999.9,0,39.3,8,7.8,8,25.1,999.9,   19.0*,   1.0*, 0.00G,999.9,100000
43100,99999,19520929,18.3,8,13,8,1006.9,8,9999.9,0,38.5,8,25,8,30.9,999.9,   19.0*,  16.0*, 0.00G,999.9,0
43100,99999,19520930,13.1,8,7.9,8,1005.8,8,9999.9,0,43.5,8,15.1,8,22.9,999.9,   16.0*,   9.0*, 0.00G,999.9,0
43100,99999,19521001,0.1,7,-3.3,7,1011.5,7,9999.9,0,37.7,7,5.7,7,9.9,999.9,    9.0*,  -4.0*, 0.00G,999.9,100000
43100,99999,19521002,4.8,8,3.1,8,1008.9,8,9999.9,0,7.5,8,5,8,11.1,999.9,   10.0*,   1.0*, 0.00G,999.9,1000
43100,99999,19521003,0.2,8,-1.5,8,1004.3,8,9999.9,0,12.3,8,5,8,8,999.9,    9.0*, -20.0*, 0.00G,999.9,101000
43100,99999,19521004,1.5,8,-1,8,1014.6,8,9999.9,0,3.1,8,6.8,8,9.9,999.9,    9.0*, -13.0*,99.99,999.9,101000
43100,99999,19521005,10.2,8,8.9,8,1031.3,8,9999.9,0,4.9,8,3.6,8,7,999.9,   12.0*,   9.0*, 0.00G,999.9,1000
43100,99999,19521006,-1.6,8,-3.4,8,1023.6,8,9999.9,0,4.2,8,0.7,8,2.9,999.9,    3.0*,  -8.0*, 0.00G,999.9,100000
43100,99999,19521007,-5.6,8,-7.8,8,1012.7,8,9999.9,0,7.8,8,1.5,8,6,999.9,    0.0*, -11.0*, 0.00G,999.9,101000
43100,99999,19521008,0.4,8,-2,8,1011.6,8,9999.9,0,4,8,7.5,8,11.1,999.9,    5.0*,  -6.0*,99.99,999.9,1000
43100,99999,19521009,-2.8,8,-5,8,1009.2,8,9999.9,0,12.7,8,2.9,8,8,999.9,    0.0*,  -4.0*, 0.00G,999.9,1000
43100,99999,19521010,-8,8,-10.8,8,1000.7,8,9999.9,0,31.5,8,1.1,8,2.9,999.9,   -2.0*, -13.0*, 0.00G,999.9,101000
43100,99999,19521011,-6.1,8,-8.5,8,999.2,8,9999.9,0,35,8,2.3,8,8,999.9,    0.0*, -13.0*, 0.00G,999.9,1000
43100,99999,19521012,-10.4,8,-12.4,8,1004.8,8,9999.9,0,35,8,6,8,8,999.9,   -6.0*, -15.0*, 0.00G,999.9,1000
43100,99999,19521013,3.6,8,1.2,8,1000.4,8,9999.9,0,33.8,8,14.2,8,22.9,999.9,   10.0*,  -8.0*, 0.00G,999.9,1000
43100,99999,19521014,-0.9,8,-4.5,8,1006.1,8,9999.9,0,34.2,8,11.5,8,14,999.9,    1.0*,  -4.0*, 0.00G,999.9,1000
43100,99999,19521015,-5.4,8,-10.9,8,1014.6,8,9999.9,0,43.5,8,4.7,8,8.9,999.9,    5.0*, -11.0*, 0.00G,999.9,0
43100,99999,19521016,-11.1,8,-14.4,8,1015.9,8,9999.9,0,39.3,8,1,8,8,999.9,   -6.0*, -15.0*, 0.00G,999.9,1000
43100,99999,19521017,-4.6,8,-8.5,8,1020.4,8,9999.9,0,28.6,8,10.1,8,13,999.9,   -2.0*,  -9.0*, 0.00G,999.9,1000
43100,99999,19521018,-0.6,8,-7.7,8,1017.3,8,9999.9,0,43.5,8,5.3,8,13,999.9,    3.0*,  -4.0*, 0.00G,999.9,0
43100,99999,19521019,-11.4,8,-15.3,8,1010.7,8,9999.9,0,43.5,8,6.5,8,11.1,999.9,   -6.0*, -18.0*, 0.00G,999.9,0
43100,99999,19521020,-2.5,8,-5.6,8,1013.4,8,9999.9,0,9.9,8,7.4,8,9.9,999.9,    0.0*,  -6.0*,99.99,999.9,1000
43100,99999,19521021,-4.9,8,-8.1,8,1022.7,8,9999.9,0,30.9,8,5.7,8,7,999.9,    0.0*,  -9.0*, 0.00G,999.9,1000
43100,99999,19521022,-3.6,8,-6.8,8,1013.7,8,9999.9,0,35.1,8,13.6,8,23.9,999.9,    3.0*, -13.0*, 0.00G,999.9,1000
43100,99999,19521023,-3.8,8,-6.5,8,1019.6,8,9999.9,0,22.4,8,5.9,8,12,999.9,    0.0*,  -8.0*, 0.00G,999.9,1000
43100,99999,19521024,-4.9,8,-7.6,8,1013.5,8,9999.9,0,11.5,8,3,8,7,999.9,    0.0*,  -9.0*, 0.00G,999.9,1000
43100,99999,19521025,-3.9,8,-6,8,1014,8,9999.9,0,21.6,8,4.6,8,8.9,999.9,    0.0*, -13.0*, 0.00G,999.9,1000
43100,99999,19521026,-9.7,8,-12.1,8,1015.3,8,9999.9,0,19.5,8,2.9,8,5.1,999.9,   -6.0*, -15.0*, 0.00G,999.9,100000
43100,99999,19521027,-9.5,8,-12.8,8,1015.6,8,9999.9,0,4,8,6,8,8,999.9,   -9.0*, -11.0*, 0.00G,999.9,100000
43100,99999,19521028,-9.8,8,-12,8,1014.9,8,9999.9,0,1.2,8,1.5,8,8,999.9,   -9.0*, -11.0*, 0.00G,999.9,101000
43100,99999,19521029,-10.3,8,-13.1,8,1011.4,8,9999.9,0,24.9,8,1.8,8,4.1,999.9,   -8.0*, -15.0*, 0.00G,999.9,1000
43100,99999,19521030,-8.5,8,-10.8,8,1006.3,8,9999.9,0,43.5,8,0.5,8,4.1,999.9,   -2.0*, -13.0*, 0.00G,999.9,0
43100,99999,19521031,-8.3,8,-11,8,995.3,8,9999.9,0,32.9,8,6.9,8,20,999.9,    0.0*, -15.0*, 0.00G,999.9,1000
43100,99999,19521101,-4.1,8,-5.9,8,995.6,8,9999.9,0,23.6,8,8.9,8,20,999.9,    1.0*,  -9.0*, 0.00G,999.9,101000
43100,99999,19521102,-8.4,8,-10.5,8,996.8,8,9999.9,0,0.3,8,6.3,8,8,999.9,   -6.0*, -11.0*, 0.00G,999.9,100000
43100,99999,19521103,-9.6,8,-12.5,8,1001.8,8,9999.9,0,18,8,5.4,8,12,999.9,   -6.0*, -17.0*, 0.00G,999.9,1000
43100,99999,19521104,-1.6,8,-3.8,8,1002.2,8,9999.9,0,43.5,8,6,8,9.9,999.9,    3.0*,  -8.0*, 0.00G,999.9,0
43100,99999,19521105,-15.5,8,-17.8,8,1005.8,8,9999.9,0,43.5,8,5.5,8,8.9,999.9,   -9.0*, -18.0*, 0.00G,999.9,0
43100,99999,19521106,-16.4,8,-18.5,8,1019.2,8,9999.9,0,43.5,8,6.2,8,9.9,999.9,  -11.0*, -18.0*, 0.00G,999.9,0
43100,99999,19521107,-11.1,8,-13.7,8,1024.3,8,9999.9,0,43.5,8,1,8,5.1,999.9,   -8.0*, -13.0*, 0.00G,999.9,0
43100,99999,19521108,-20.6,8,-23.5,8,1016.4,8,9999.9,0,43.5,8,4.3,8,9.9,999.9,  -17.0*, -26.0*, 0.00G,999.9,0
43100,99999,19521109,-17.6,8,-20.4,8,1020,8,9999.9,0,30.9,8,3,8,9.9,999.9,  -11.0*, -24.0*, 0.00G,999.9,1000
43100,99999,19521110,-18,8,-20.8,8,1018.4,8,9999.9,0,43.5,8,3.3,8,8,999.9,  -17.0*, -20.0*, 0.00G,999.9,0
43100,99999,19521111,-27.9,8,-30.9,8,1022.3,8,9999.9,0,43.5,8,6.9,8,8.9,999.9,  -20.0*, -35.0*, 0.00G,999.9,0
43100,99999,19521112,-16.2,8,-19,8,1020.6,8,9999.9,0,43.5,8,3,8,7,999.9,  -13.0*, -20.0*, 0.00G,999.9,0
43100,99999,19521113,-20.6,8,-23.7,8,1015,8,9999.9,0,43.5,8,1.8,8,5.1,999.9,  -15.0*, -24.0*, 0.00G,999.9,0
43100,99999,19521114,-21.6,8,-24.4,8,1021.5,8,9999.9,0,43.5,8,4.1,8,8,999.9,  -13.0*, -31.0*, 0.00G,999.9,0
43100,99999,19521115,-13,8,-16.4,8,1019.5,8,9999.9,0,39.3,8,3.4,8,8,999.9,   -9.0*, -18.0*, 0.00G,999.9,1000
43100,99999,19521116,-12.8,8,-15.4,8,1017.5,8,9999.9,0,43.5,8,6.5,8,8.9,999.9,   -8.0*, -18.0*, 0.00G,999.9,0
43100,99999,19521117,-10.6,8,-13.6,8,1008.7,8,9999.9,0,43.5,8,5.9,8,8,999.9,    0.0*, -17.0*, 0.00G,999.9,0
43100,99999,19521118,-12.6,8,-16,8,1014.3,8,9999.9,0,43.5,8,9.3,8,15,999.9,   -9.0*, -18.0*, 0.00G,999.9,0
43100,99999,19521119,-13.7,8,-18.1,8,1008.5,8,9999.9,0,43.5,8,5,8,11.1,999.9,   -8.0*, -26.0*, 0.00G,999.9,0
43100,99999,19521120,-25.1,8,-28.9,8,1014.7,8,9999.9,0,33.8,8,8.7,8,14,999.9,  -15.0*, -33.0*, 0.00G,999.9,1000
43100,99999,19521121,-16.1,8,-19,8,1021.9,8,9999.9,0,19.4,8,11,8,22,999.9,  -11.0*, -27.0*, 0.00G,999.9,1000
43100,99999,19521122,-13.8,8,-16.9,8,1024,8,9999.9,0,19.4,8,11.8,8,23.9,999.9,   -9.0*, -18.0*, 0.00G,999.9,1000
43100,99999,19521123,-6.6,8,-9.4,8,1010.4,8,9999.9,0,1.9,8,16.4,8,29.9,999.9,   -2.0*, -11.0*,99.99,999.9,1000
43100,99999,19521124,-4.7,8,-8,8,1013.1,8,9999.9,0,0.1,8,16.8,8,29.9,999.9,   -2.0*,  -6.0*,99.99,999.9,1000
43100,99999,19521125,-1.8,8,-5,8,1016.2,8,9999.9,0,0.7,8,18.8,8,29.9,999.9,    0.0*,  -4.0*,99.99,999.9,1000
43100,99999,19521126,-3.5,8,-6.6,8,1017.4,8,9999.9,0,2.4,8,12.6,8,20,999.9,   -2.0*,  -6.0*,99.99,999.9,1000
43100,99999,19521127,-2.8,8,-5.5,8,1018.4,8,9999.9,0,2.1,8,9.3,8,16.9,999.9,   -2.0*,  -4.0*,99.99,999.9,1000
43100,99999,19521128,-8.4,8,-10.9,8,1016.5,8,9999.9,0,30.9,8,1.5,8,7,999.9,   -6.0*, -15.0*, 0.00G,999.9,0
43100,99999,19521129,-11.2,8,-13.1,8,1009.7,8,9999.9,0,30.9,8,1.9,8,7,999.9,   -8.0*, -18.0*, 0.00G,999.9,101000
43100,99999,19521130,-21,8,-23,8,1005.1,8,9999.9,0,23.8,8,0.8,8,6,999.9,  -17.0*, -27.0*, 0.00G,999.9,100000
43100,99999,19521201,-17.7,8,-20.6,8,1007.6,8,9999.9,0,43.5,8,4.5,8,7,999.9,  -13.0*, -31.0*, 0.00G,999.9,0
43100,99999,19521202,-12.3,8,-14.5,8,1014.6,8,9999.9,0,43.5,8,10.1,8,14,999.9,   -6.0*, -20.0*, 0.00G,999.9,0
43100,99999,19521203,-17,8,-20.5,8,1020.5,8,9999.9,0,38.2,8,8.3,8,14,999.9,  -13.0*, -22.0*, 0.00G,999.9,0
43100,99999,19521204,-20.7,8,-23.8,8,1024.7,8,9999.9,0,43.5,8,6.8,8,9.9,999.9,  -17.0*, -24.0*, 0.00G,999.9,0
43100,99999,19521205,-14.5,8,-17.6,8,1018.7,8,9999.9,0,35.1,8,8.9,8,14,999.9,  -11.0*, -22.0*, 0.00G,999.9,1000
43100,99999,19521206,-15.6,8,-18.5,8,1021.8,8,9999.9,0,30.9,8,8.7,8,15.9,999.9,  -13.0*, -20.0*, 0.00G,999.9,1000
43100,99999,19521207,-17,8,-19.8,8,1025.2,8,9999.9,0,43.5,8,6.9,8,9.9,999.9,  -11.0*, -24.0*, 0.00G,999.9,0
43100,99999,19521208,-11.2,8,-15,8,1022.4,8,9999.9,0,43.5,8,4.2,8,9.9,999.9,   -6.0*, -15.0*, 0.00G,999.9,0
43100,99999,19521209,-8.2,8,-11.2,8,1019.3,8,9999.9,0,31.5,8,6,8,8.9,999.9,   -4.0*, -15.0*, 0.00G,999.9,1000
43100,99999,19521210,-14.9,8,-17.4,8,1021.7,8,9999.9,0,18.1,8,5.5,8,7,999.9,   -6.0*, -27.0*, 0.00G,999.9,1000
43100,99999,19521211,-25.1,8,-27.7,8,1028.2,8,9999.9,0,33.1,8,4.8,8,8,999.9,  -20.0*, -33.0*, 0.00G,999.9,0